• In Moldova, Republic
  • List of Countries
  • For 7 days
  • Water Temperature
  • Satellite Maps
  • Weather Map
  • Weather Widgets
  • user-avatar
    Login

    Hourly Weather Solden

    Today, 29 June, Thursday

    Time Temperature Precipitation Wind Pressure Humidity
    00:00 +5°C° 0.3 mm 1 mps 574 mmHg 96%
    01:00 +5°C° 0.3 mm 1 mps 573 mmHg 97%
    02:00 +5°C° 0.5 mm 1 mps 573 mmHg 97%
    03:00 +5°C° 0.5 mm 1 mps 573 mmHg 97%
    04:00 +4°C° 0.5 mm 1 mps 573 mmHg 97%
    05:00 +4°C° 0.7 mm 0 mps 573 mmHg 95%
    06:00 +5°C° 0.7 mm 0 mps 574 mmHg 94%
    07:00 +5°C° 0.7 mm 0 mps 574 mmHg 92%
    08:00 +6°C° 0.9 mm 0 mps 575 mmHg 89%
    09:00 +8°C° 0.9 mm 1 mps 575 mmHg 85%
    10:00 +9°C° 0.9 mm 1 mps 576 mmHg 81%
    11:00 +9°C° 0.9 mm 1 mps 576 mmHg 80%
    12:00 +9°C° 0.9 mm 2 mps 577 mmHg 79%
    13:00 +10°C° 0.9 mm 2 mps 577 mmHg 78%
    14:00 +9°C° 1 mm 2 mps 577 mmHg 78%
    15:00 +9°C° 1 mm 2 mps 577 mmHg 78%
    16:00 +9°C° 1 mm 3 mps 577 mmHg 78%
    17:00 +8°C° 0.8 mm 2 mps 577 mmHg 81%
    18:00 +7°C° 0.8 mm 2 mps 577 mmHg 84%
    19:00 +8°C° 0.8 mm 1 mps 577 mmHg 88%
    20:00 +6°C° 0.6 mm 1 mps 576 mmHg 91%
    21:00 +5°C° 0.6 mm 1 mps 576 mmHg 94%
    22:00 +4°C° 0.6 mm 1 mps 576 mmHg 97%
    23:00 +3°C° 0.9 mm 1 mps 576 mmHg 97%

    Tomorrow, 30 June, Friday

    Time Temperature Precipitation Wind Pressure Humidity
    00:00 +3°C° 0.9 mm 1 mps 576 mmHg 97%
    01:00 +3°C° 0.9 mm 1 mps 576 mmHg 97%
    02:00 +2°C° 0.9 mm 0 mps 576 mmHg 97%
    03:00 +2°C° 0.9 mm 0 mps 576 mmHg 97%
    04:00 +1°C° 0.9 mm 0 mps 576 mmHg 96%
    05:00 +3°C° 0.2 mm 0 mps 577 mmHg 94%
    06:00 +5°C° 0.2 mm 1 mps 578 mmHg 92%
    07:00 +6°C° 0.2 mm 1 mps 578 mmHg 89%
    08:00 +7°C° 0.3 mm 1 mps 579 mmHg 84%
    09:00 +7°C° 0.3 mm 2 mps 580 mmHg 78%
    10:00 +8°C° 0.3 mm 2 mps 580 mmHg 72%
    11:00 +8°C° 0.6 mm 2 mps 581 mmHg 71%
    12:00 +8°C° 0.6 mm 2 mps 581 mmHg 70%
    13:00 +9°C° 0.6 mm 3 mps 581 mmHg 68%
    14:00 +8°C° 0.4 mm 2 mps 581 mmHg 68%
    15:00 +8°C° 0.4 mm 2 mps 581 mmHg 68%
    16:00 +8°C° 0.4 mm 2 mps 580 mmHg 68%
    17:00 +7°C° 0.2 mm 2 mps 580 mmHg 73%
    18:00 +6°C° 0.2 mm 2 mps 580 mmHg 77%
    19:00 +6°C° 0.2 mm 1 mps 580 mmHg 82%
    20:00 +5°C° 0.1 mm 1 mps 579 mmHg 86%
    21:00 +3°C° 0.1 mm 1 mps 579 mmHg 90%
    22:00 +2°C° 0.1 mm 1 mps 578 mmHg 94%
    23:00 +1°C° 0.1 mm 1 mps 578 mmHg 94%

    Day after tomorrow, 1 July, Saturday

    Time Temperature Precipitation Wind Pressure Humidity
    00:00 +1°C° 0.1 mm 1 mps 577 mmHg 94%
    01:00 +1°C° 0.1 mm 1 mps 577 mmHg 94%
    02:00 0°C° 0.1 mm 1 mps 577 mmHg 94%
    03:00 0°C° 0.1 mm 1 mps 577 mmHg 93%
    04:00 0°C° 0.1 mm 1 mps 577 mmHg 93%
    05:00 +2°C° 0 mm 1 mps 578 mmHg 87%
    06:00 +4°C° 0 mm 1 mps 579 mmHg 81%
    07:00 +5°C° 0 mm 1 mps 580 mmHg 74%
    08:00 +7°C° 0.1 mm 1 mps 581 mmHg 67%
    09:00 +9°C° 0.1 mm 1 mps 582 mmHg 60%
    10:00 +11°C° 0.1 mm 1 mps 583 mmHg 53%
    11:00 +11°C° 0.4 mm 1 mps 583 mmHg 55%
    12:00 +11°C° 0.4 mm 1 mps 583 mmHg 56%
    13:00 +10°C° 0.4 mm 2 mps 583 mmHg 58%
    14:00 +10°C° 0.6 mm 2 mps 583 mmHg 62%
    15:00 +9°C° 0.6 mm 2 mps 583 mmHg 66%
    16:00 +9°C° 0.6 mm 2 mps 583 mmHg 70%
    17:00 +8°C° 0.7 mm 2 mps 582 mmHg 77%
    18:00 +8°C° 0.7 mm 1 mps 582 mmHg 83%
    19:00 +7°C° 0.7 mm 1 mps 582 mmHg 89%
    20:00 +6°C° 0.6 mm 1 mps 582 mmHg 91%
    21:00 +5°C° 0.6 mm 1 mps 581 mmHg 93%
    22:00 +3°C° 0.6 mm 1 mps 581 mmHg 96%
    23:00 +3°C° 0.1 mm 1 mps 581 mmHg 96%

    2 July, Sunday

    Time Temperature Precipitation Wind Pressure Humidity
    00:00 +3°C° 0.1 mm 1 mps 581 mmHg 95%
    01:00 +3°C° 0.1 mm 1 mps 581 mmHg 95%
    02:00 +3°C° 0 mm 1 mps 581 mmHg 95%
    03:00 +1°C° 0 mm 2 mps 581 mmHg 94%
    04:00 +1°C° 0 mm 2 mps 581 mmHg 94%
    05:00 +2°C° 0.1 mm 2 mps 581 mmHg 91%
    06:00 +3°C° 0.1 mm 2 mps 582 mmHg 88%
    07:00 +4°C° 0.1 mm 2 mps 583 mmHg 86%
    08:00 +6°C° 0.1 mm 2 mps 584 mmHg 78%
    09:00 +7°C° 0.1 mm 2 mps 585 mmHg 71%
    10:00 +9°C° 0.1 mm 2 mps 586 mmHg 63%
    11:00 +10°C° 0.1 mm 2 mps 586 mmHg 61%
    12:00 +10°C° 0.1 mm 2 mps 586 mmHg 59%
    13:00 +12°C° 0.1 mm 2 mps 587 mmHg 57%
    14:00 +12°C° 0 mm 2 mps 587 mmHg 57%
    15:00 +12°C° 0 mm 2 mps 587 mmHg 57%
    16:00 +13°C° 0 mm 2 mps 587 mmHg 57%
    17:00 +10°C° 0 mm 2 mps 587 mmHg 63%
    18:00 +9°C° 0 mm 2 mps 587 mmHg 69%
    19:00 +8°C° 0 mm 2 mps 586 mmHg 76%
    20:00 +7°C° 0 mm 2 mps 586 mmHg 80%
    21:00 +5°C° 0 mm 2 mps 585 mmHg 84%
    22:00 +3°C° 0 mm 2 mps 585 mmHg 88%
    23:00 +3°C° 0 mm 2 mps 585 mmHg 89%

    3 July, Monday

    Time Temperature Precipitation Wind Pressure Humidity
    00:00 +2°C° 0 mm 2 mps 585 mmHg 89%
    01:00 +2°C° 0 mm 2 mps 584 mmHg 89%
    02:00 +2°C° 0 mm 2 mps 584 mmHg 89%
    03:00 +1°C° 0 mm 2 mps 584 mmHg 89%
    04:00 +1°C° 0 mm 2 mps 584 mmHg 89%
    05:00 +3°C° 0 mm 2 mps 585 mmHg 84%
    06:00 +5°C° 0 mm 2 mps 586 mmHg 80%
    07:00 +7°C° 0 mm 1 mps 587 mmHg 75%
    08:00 +9°C° 0 mm 1 mps 587 mmHg 68%
    09:00 +11°C° 0 mm 1 mps 588 mmHg 61%
    10:00 +13°C° 0 mm 1 mps 589 mmHg 54%
    11:00 +14°C° 0 mm 1 mps 589 mmHg 51%
    12:00 +15°C° 0 mm 1 mps 590 mmHg 48%
    13:00 +16°C° 0 mm 1 mps 590 mmHg 46%
    14:00 +15°C° 0.1 mm 2 mps 589 mmHg 47%
    15:00 +15°C° 0.1 mm 2 mps 589 mmHg 48%
    16:00 +15°C° 0.1 mm 2 mps 589 mmHg 50%
    17:00 +13°C° 0.1 mm 2 mps 588 mmHg 59%
    18:00 +12°C° 0.1 mm 2 mps 588 mmHg 69%
    19:00 +11°C° 0.1 mm 1 mps 587 mmHg 78%
    20:00 +9°C° 0.1 mm 1 mps 586 mmHg 84%
    21:00 +6°C° 0.1 mm 1 mps 585 mmHg 90%
    22:00 +4°C° 0.1 mm 1 mps 584 mmHg 96%
    23:00 +4°C° 0 mm 1 mps 584 mmHg 95%

    4 July, Tuesday

    Time Temperature Precipitation Wind Pressure Humidity
    00:00 +4°C° 0 mm 1 mps 584 mmHg 95%
    01:00 +3°C° 0 mm 1 mps 584 mmHg 95%
    02:00 +3°C° 0 mm 1 mps 584 mmHg 94%
    03:00 +3°C° 0 mm 1 mps 584 mmHg 94%
    04:00 +3°C° 0 mm 1 mps 584 mmHg 93%
    05:00 +5°C° 0 mm 1 mps 584 mmHg 87%
    06:00 +7°C° 0 mm 1 mps 585 mmHg 81%
    07:00 +9°C° 0 mm 1 mps 586 mmHg 75%
    08:00 +11°C° 0 mm 1 mps 587 mmHg 67%
    09:00 +13°C° 0 mm 1 mps 588 mmHg 58%
    10:00 +15°C° 0 mm 1 mps 589 mmHg 49%
    11:00 +16°C° 0.1 mm 1 mps 589 mmHg 48%
    12:00 +16°C° 0.1 mm 1 mps 589 mmHg 46%
    13:00 +17°C° 0.1 mm 2 mps 589 mmHg 44%
    14:00 +17°C° 0.2 mm 2 mps 589 mmHg 48%
    15:00 +16°C° 0.2 mm 2 mps 589 mmHg 51%
    16:00 +16°C° 0.2 mm 2 mps 588 mmHg 55%
    17:00 +15°C° 0.4 mm 2 mps 588 mmHg 64%
    18:00 +13°C° 0.4 mm 1 mps 587 mmHg 73%
    19:00 +12°C° 0.4 mm 1 mps 586 mmHg 81%
    20:00 +9°C° 0.2 mm 1 mps 585 mmHg 86%
    21:00 +7°C° 0.2 mm 1 mps 584 mmHg 90%
    22:00 +4°C° 0.2 mm 0 mps 583 mmHg 95%
    23:00 +4°C° 0.1 mm 1 mps 583 mmHg 94%
    Show more